Wind_Speed
24 25 22 21 21 20 20 19 18 17 17 17 17 16 15 14 13 11 10 10 10 11 12 10 9 10 13 14 11 8 7 7 6 7 9 10 10 9 8 8 9 7 2
31 27 23 23 21 21 19 18 18 16 15 15 16 16 15 14 12 11 11 11 11 11 12 13 14 17 16 13 10 8 6 6 9 9 7 7 9 7 6 5 4 6 5
32 27 24 24 22 21 20 18 18 17 16 15 15 15 15 14 12 12 12 11 12 12 11 11 12 12 11 10 8 6 6 11 9 7 7 6 7 5 4 5 5 3 3
31 29 26 24 23 21 19 17 16 16 17 17 17 18 17 14 13 13 13 12 12 12 11 10 10 9 8 7 6 8 11 11 9 7 6 6 7 6 5 4 2 1 3
31 30 27 25 23 21 18 16 17 17 18 17 19 20 17 16 14 13 13 12 12 12 11 10 9 8 8 8 8 10 10 9 5 5 5 6 5 5 6 4 4 3 1
32 31 27 25 22 20 18 17 19 19 19 18 21 20 17 16 14 13 12 11 11 11 10 10 10 10 9 8 7 8 7 4 3 3 7 5 4 4 5 4 5 3 2
32 30 28 25 22 20 18 19 20 20 20 18 17 17 18 15 14 12 10 10 10 9 8 9 9 10 10 9 8 6 5 3 3 5 7 2 1 5 6 5 6 6 5
33 31 30 25 22 20 18 18 21 24 22 21 21 19 16 15 13 12 9 9 9 9 8 8 9 9 8 7 6 5 5 4 5 6 6 6 2 3 4 5 6 8 11
30 32 30 26 23 21 19 18 21 24 22 21 21 19 17 15 14 14 12 10 9 8 9 9 8 7 6 6 7 6 4 4 4 6 5 5 4 4 5 5 8 10 10
30 31 31 28 25 22 20 19 20 24 23 21 22 19 14 12 14 16 14 11 9 9 8 8 6 6 7 8 6 7 4 6 7 6 5 6 5 5 8 8 10 11 6
29 31 31 30 27 24 21 20 20 22 24 22 20 17 15 13 16 18 16 12 10 9 8 7 6 7 7 7 4 6 3 3 4 3 5 7 8 10 10 11 11 11 10
23 25 30 30 29 25 23 22 21 21 23 24 22 19 17 15 16 16 14 12 10 10 8 7 7 6 4 4 3 3 1 0 3 5 6 8 11 11 7 7 10 10 10
32 29 30 31 30 28 26 24 23 22 23 24 24 21 18 17 17 16 15 13 12 11 10 9 7 5 3 3 3 2 2 2 4 6 8 8 10 7 6 9 9 10 9
32 33 32 32 32 31 29 28 26 25 24 24 24 23 22 20 19 18 16 14 13 12 11 9 8 5 4 2 1 1 1 3 5 7 8 8 11 10 8 9 9 9 8
31 34 35 35 34 34 32 30 29 27 26 24 22 22 23 23 22 22 18 16 16 15 12 12 9 7 5 2 2 1 1 3 7 8 7 7 10 10 9 8 8 8 7
30 33 35 38 37 37 37 34 33 30 27 27 26 25 25 23 23 25 20 19 18 16 14 12 9 7 5 3 3 4 2 3 6 8 8 7 7 7 7 7 7 6 7
18 34 37 38 40 40 39 37 36 33 28 28 28 28 26 24 25 24 23 21 18 18 17 12 9 7 4 3 3 4 4 4 6 9 8 7 6 6 6 6 6 6 7
23 18 33 38 41 43 41 40 38 34 32 28 28 31 30 29 26 24 24 25 23 20 16 12 9 7 5 4 4 5 5 4 6 9 8 4 3 2 1 1 3 4 7
31 29 22 34 39 44 43 40 41 36 31 30 30 32 33 34 28 25 27 27 24 20 15 12 11 8 5 4 4 4 5 5 8 9 8 5 2 1 0 2 4 6 8
36 34 29 26 37 44 39 39 40 36 34 31 32 33 33 34 30 29 31 27 23 19 16 14 11 9 5 3 6 5 4 5 9 8 8 6 4 3 2 3 5 7 11
34 35 34 30 37 38 32 33 34 37 37 35 36 36 35 32 32 34 32 28 24 21 19 16 14 9 5 5 8 6 5 6 7 7 8 8 7 5 3 2 4 9 11
21 22 30 33 31 42 35 41 29 38 39 40 37 37 37 34 36 36 33 31 27 24 20 18 16 11 5 5 4 4 1 2 5 7 7 7 8 6 4 1 5 8 11
24 25 23 22 23 35 37 32 32 29 28 34 36 38 38 39 38 36 33 31 30 28 26 22 18 14 9 5 4 3 2 3 0 2 6 7 6 6 2 5 10 11 10
27 23 21 22 23 26 38 37 38 34 22 34 44 41 39 39 39 38 36 35 32 29 27 25 21 17 13 10 6 4 4 4 3 1 4 7 5 4 8 14 11 16 12
23 25 22 22 23 25 34 43 41 32 33 34 39 41 40 40 39 38 37 34 30 28 25 23 21 18 13 13 8 6 3 3 3 3 2 3 6 10 16 9 15 11 9
5 3 1 6 17 22 26 38 43 31 36 32 36 38 39 37 36 36 36 33 31 29 27 23 20 18 15 12 10 7 6 3 3 3 1 3 6 9 10 16 13 5 12
Wind_Direction
165 161 161 152 150 145 141 142 141 139 138 137 133 129 124 118 112 109 109 110 114 108 98 102 117 146 143 126 120 109 95 81 76 88 89 83 74 64 71 100 92 101 87
162 162 161 156 151 145 144 145 146 147 148 143 138 136 130 123 114 110 107 110 118 118 114 108 103 107 114 115 113 92 78 85 96 92 87 86 81 71 81 95 92 77 93
159 159 161 159 155 151 151 149 150 153 151 149 145 142 137 128 118 110 108 110 119 125 121 113 107 105 111 110 104 87 97 110 96 87 82 99 82 73 68 81 101 70 96
159 160 162 162 160 155 152 152 152 154 153 153 157 150 140 133 126 118 116 116 118 121 121 116 115 115 116 112 104 107 114 113 102 97 102 83 85 56 46 69 92 107 119
160 163 165 165 163 158 155 153 148 146 149 159 164 150 142 140 134 127 124 121 121 121 120 117 117 120 119 116 107 110 123 116 100 101 104 93 72 56 48 36 44 75 171
163 165 167 168 167 163 159 154 147 146 148 143 147 148 148 147 144 138 133 132 130 128 126 126 123 119 115 111 108 111 125 118 86 80 132 76 27 70 32 2 3 360 290
166 167 171 172 172 167 162 158 155 152 153 151 154 155 155 157 154 152 143 139 138 134 134 129 125 120 115 112 108 106 106 87 49 113 142 144 100 18 32 27 23 25 24
169 172 175 176 176 172 169 166 161 161 159 158 154 155 161 165 168 169 164 155 148 143 141 136 131 124 115 108 96 92 104 101 81 94 125 144 116 38 48 30 42 58 55
172 174 177 179 180 178 176 172 167 168 166 168 167 169 172 176 183 180 178 170 159 153 149 143 138 131 117 101 94 96 88 83 115 125 113 98 76 70 64 73 78 63 54
174 178 181 182 183 182 179 178 173 174 175 171 174 177 175 181 191 184 180 176 169 160 153 144 139 131 119 109 100 100 97 98 117 124 107 82 72 89 97 89 77 77 69
178 182 184 184 186 185 183 182 179 179 181 181 183 180 177 172 170 179 180 179 175 166 162 151 151 147 137 130 106 110 120 109 139 128 94 85 103 97 98 83 75 75 67
179 184 190 191 189 187 188 187 186 185 187 190 191 187 182 178 178 179 183 184 180 171 165 162 157 154 155 160 136 148 190 129 132 116 95 107 112 103 91 77 82 81 67
189 189 195 195 194 192 193 192 191 192 193 194 197 196 191 190 187 188 186 186 182 178 173 168 164 159 165 170 159 160 190 180 132 122 117 134 114 109 101 88 84 82 73
192 197 198 198 199 199 199 198 197 196 196 199 202 203 199 196 195 194 195 192 188 178 174 172 173 180 179 184 186 140 168 158 134 132 130 141 116 110 105 89 82 76 68
195 201 204 200 202 202 203 202 202 202 202 201 200 203 202 201 208 204 200 194 186 181 186 181 185 187 197 200 201 157 182 155 143 141 135 141 133 112 101 87 77 68 57
212 206 209 206 205 204 204 203 203 204 206 209 205 201 200 207 206 202 199 191 189 189 189 188 193 205 206 191 171 134 127 159 154 149 139 138 144 130 104 84 64 54 41
231 222 213 212 209 207 208 204 206 205 205 211 209 206 206 207 204 203 199 195 190 182 187 198 202 197 198 183 173 163 144 162 171 160 151 146 144 137 123 90 64 56 37
253 235 220 212 207 209 209 207 205 208 205 215 213 212 212 207 207 201 200 192 188 189 198 200 199 194 187 182 181 164 167 176 180 174 168 166 152 135 103 38 21 48 36
257 252 241 213 210 208 212 209 207 207 208 212 218 217 212 208 205 204 199 192 192 195 195 200 195 197 182 175 175 173 170 193 181 178 178 173 186 177 106 335 346 1 5
254 256 251 232 212 211 210 213 209 206 210 214 214 215 211 208 203 203 194 193 195 196 195 195 191 176 169 171 159 168 158 165 182 187 193 196 216 219 271 326 346 348 344
250 250 251 238 220 209 200 201 204 205 206 211 215 218 217 218 207 200 194 197 198 203 200 192 176 165 133 151 148 131 149 165 182 198 203 209 214 208 241 287 331 330 337
252 251 250 246 228 219 206 212 204 205 208 212 212 214 215 217 201 198 201 196 201 196 195 190 187 167 150 147 155 126 116 214 200 208 215 214 187 196 197 299 345 335 327
252 249 249 247 231 221 212 205 210 201 202 204 207 211 210 201 201 204 204 202 201 200 196 192 190 187 165 145 145 155 100 217 328 192 178 163 170 174 186 313 320 330 338
255 254 250 254 252 230 214 212 207 203 191 204 207 207 205 201 201 204 205 202 202 199 196 193 190 191 183 165 136 117 117 131 161 320 204 206 202 228 315 318 323 324 324
258 261 270 266 258 246 224 216 215 207 203 202 205 201 199 197 203 200 200 200 198 198 197 190 185 182 180 171 172 159 158 148 152 134 246 280 252 274 309 314 326 329 335
117 113 347 312 271 262 237 219 217 203 200 192 195 194 195 195 197 199 196 197 196 195 191 187 184 179 177 174 170 171 174 168 177 159 187 269 262 303 302 313 326 318 328
Height
784 787 790 792 794 795 797 798 800 801 803 804 806 808 809 810 811 812 812 812 813 813 813 813 814 814 815 816 817 817 818 818 817 818 818 818 819 819 819 820 820 820 820
780 785 789 792 793 794 796 798 799 802 804 805 807 808 810 811 812 813 813 813 813 814 815 815 814 814 816 818 818 818 818 819 819 819 819 819 819 820 820 820 821 820 821
780 785 789 792 793 794 796 797 798 801 803 806 808 809 811 812 813 814 813 814 815 815 816 816 816 817 817 818 818 818 819 819 820 821 821 820 820 821 821 821 821 821 821
780 785 789 792 793 795 796 797 798 800 802 804 807 809 811 813 814 814 815 815 816 816 816 817 817 817 818 819 819 819 820 820 821 821 822 822 821 821 821 822 821 821 821
780 784 789 791 794 795 797 798 799 801 803 805 807 809 811 813 814 815 816 816 817 817 817 818 818 819 819 820 820 820 821 821 822 822 822 822 823 823 823 823 822 821 821
781 785 789 792 795 796 797 799 800 802 804 807 809 811 813 814 815 816 817 817 818 819 819 819 819 819 820 821 821 821 822 822 822 821 822 823 824 823 823 824 822 820 820
781 785 789 792 795 796 798 799 800 803 806 807 810 812 814 816 816 817 817 818 819 820 821 821 820 821 821 821 821 822 822 822 822 822 822 824 825 824 824 824 823 822 820
779 785 789 793 795 796 798 799 800 802 804 807 809 812 814 816 817 818 818 819 819 820 821 822 822 822 822 821 822 822 822 821 822 822 823 824 825 825 825 824 824 823 822
781 784 789 792 795 797 798 800 801 802 804 806 809 811 812 814 816 817 818 819 820 821 822 822 823 823 822 823 823 822 822 822 822 823 824 825 825 825 825 825 824 823 824
783 784 788 791 794 796 798 800 801 803 805 806 808 810 812 813 814 816 817 819 820 821 822 822 823 824 823 824 823 823 823 822 823 824 824 824 826 825 825 825 825 824 825
783 784 787 790 793 795 797 799 801 803 805 806 808 810 811 812 813 815 816 818 819 820 822 822 823 823 824 823 824 824 823 823 823 825 825 824 826 825 827 825 826 826 827
781 784 785 788 791 793 796 798 800 801 803 804 806 808 810 811 813 814 816 817 819 820 821 822 823 824 824 823 824 825 824 823 823 825 825 825 825 825 827 827 827 827 828
776 781 783 785 788 791 794 797 799 800 802 803 805 807 809 810 812 813 814 816 817 820 821 822 823 824 824 825 824 824 824 823 823 825 825 826 826 826 828 828 828 827 829
773 776 779 782 784 788 791 793 796 798 800 801 803 805 806 808 810 812 813 815 817 818 820 821 823 824 824 825 824 824 824 824 823 825 826 826 826 827 829 828 829 828 829
769 772 774 777 780 783 786 790 793 795 797 799 801 803 805 806 808 811 812 814 816 817 819 820 821 822 823 823 824 824 824 824 824 825 826 826 826 827 829 829 829 829 829
767 767 769 773 775 777 779 784 787 790 793 795 797 799 800 802 805 808 811 813 815 816 818 820 820 821 821 822 822 823 824 824 825 826 826 826 826 827 828 829 829 829 829
762 764 766 766 770 772 773 777 781 785 789 791 794 797 797 800 803 805 809 811 814 815 817 818 819 820 820 821 821 822 823 823 825 825 826 826 826 826 827 828 829 829 829
755 758 761 764 764 767 769 772 776 780 783 787 790 794 795 797 800 803 806 808 811 813 815 817 818 818 819 819 820 821 822 823 824 825 825 826 827 827 827 827 828 828 827
747 751 755 759 761 761 764 768 771 774 777 781 785 788 791 794 798 801 804 807 810 812 813 815 817 818 818 818 819 820 821 822 822 823 824 825 826 827 827 827 827 827 825
742 744 747 751 755 758 762 764 768 771 773 777 780 783 786 790 794 798 802 805 807 809 812 814 815 816 817 817 818 819 820 821 822 822 823 824 825 826 826 826 826 826 825
738 739 740 742 747 752 757 759 762 766 769 771 775 779 782 785 790 793 797 801 803 806 809 812 813 814 816 816 817 818 820 821 822 822 822 823 823 824 825 825 824 824 823
732 733 735 736 739 743 747 750 755 756 761 765 769 772 776 780 785 789 792 796 799 803 807 809 810 812 814 814 815 817 821 822 820 820 821 821 821 822 823 823 823 822 821
726 728 730 731 734 735 740 743 747 753 756 760 763 767 769 775 779 785 788 792 796 797 801 804 807 808 811 813 813 815 822 821 819 819 819 820 820 821 821 821 820 819 818
720 723 725 726 728 730 732 735 737 741 747 750 754 759 765 771 774 777 783 786 791 794 797 798 802 805 807 810 813 813 813 814 819 821 819 819 819 819 819 818 817 816 814
717 719 720 721 722 724 727 726 731 734 737 742 748 753 758 765 770 771 777 782 786 792 796 797 800 802 805 807 809 811 813 813 814 816 819 816 816 816 816 815 814 813 812
715 715 716 717 717 719 720 722 723 728 731 736 742 749 754 760 765 769 772 778 783 789 792 795 799 800 803 805 807 808 810 812 813 815 818 817 816 813 813 812 812 811 809